SCP
-0 -0 -0 0 0 0 0 -0 -0 0 0 0 1 -0 0 0 1 0 0 0 0 0 0 0 0 0 0 0 0 0 0 0 0 0 0 0 0 -0 0 0 0 0 0 -0 -0 -0 -0 -0 0
0 -0 0 -0 -0 -0 -0 0 0 0 0 0 0 0 0 0 0 0 1 0 0 0 0 0 0 0 0 0 0 0 0 0 0 0 0 0 0 0 0 0 0 0 0 0 0 -0 -0 -0 0
0 0 0 -0 -0 0 -0 -0 0 0 0 0 0 1 1 1 1 1 0 0 0 0 0 1 0 0 0 0 0 0 0 0 0 0 0 0 0 0 0 0 0 0 0 0 0 0 0 0 0
0 0 0 0 0 -0 0 0 0 0 0 0 1 1 1 1 0 1 0 0 0 1 0 0 0 0 0 0 0 0 0 0 0 0 0 0 0 0 0 0 0 0 0 0 0 0 0 0 0
0 0 0 0 0 0 -0 0 0 0 0 0 1 1 1 1 1 1 1 1 1 0 0 0 0 0 0 0 0 0 0 0 0 0 0 0 0 0 0 0 0 0 0 0 0 0 0 0 0
0 0 0 0 0 -0 0 0 0 0 0 0 1 2 1 0 1 1 1 1 1 1 0 1 1 0 0 0 0 0 0 0 0 0 0 0 0 0 0 0 0 0 0 0 0 0 0 0 0
0 0 0 -0 -0 -0 0 0 0 0 0 0 0 2 1 0 0 1 1 1 1 1 0 1 0 0 0 0 0 0 0 0 0 0 0 0 0 0 0 0 0 0 0 0 0 0 0 0 0
0 0 0 0 0 0 0 0 0 0 0 0 0 1 1 0 1 1 1 1 1 1 1 0 0 0 0 0 0 0 0 0 0 0 0 0 0 0 0 0 0 0 0 0 0 0 0 0 0
0 0 0 0 0 0 0 0 0 0 0 0 0 1 1 0 1 1 1 1 1 1 1 0 0 0 0 0 0 0 0 0 0 0 0 0 1 0 1 1 1 1 1 0 0 0 0 0 0
0 0 0 0 0 0 0 0 0 0 0 0 1 1 0 1 1 1 1 1 1 1 1 1 0 0 0 0 0 0 0 0 0 0 0 0 0 0 0 0 0 0 1 1 0 0 0 0 0
0 0 0 0 0 0 0 0 0 0 0 0 2 1 1 1 1 1 1 1 1 1 1 1 1 0 0 0 0 0 0 0 0 0 0 0 0 0 0 0 0 0 0 0 1 1 1 1 1
0 0 0 0 0 0 0 0 0 0 0 0 0 1 1 1 1 1 1 1 1 1 1 1 1 1 1 0 0 0 0 0 0 0 0 0 0 0 0 0 0 0 0 0 0 0 0 0 0
0 0 0 0 0 0 0 0 0 0 0 0 0 0 1 1 1 1 1 1 0 0 0 0 0 0 0 0 0 0 0 0 0 0 0 0 0 0 0 0 0 0 0 0 0 0 0 0 0
0 0 0 0 0 0 0 0 0 0 0 0 0 1 1 1 1 1 0 0 0 0 0 0 0 0 0 0 0 0 0 0 0 0 0 0 0 0 0 0 0 0 0 0 0 0 0 0 0
0 0 0 0 0 0 0 0 0 0 0 0 0 0 1 1 1 1 0 0 0 0 0 0 0 0 0 0 0 0 0 0 0 0 0 0 0 0 0 0 0 0 0 0 0 0 0 0 0
0 0 0 0 0 0 0 0 0 0 0 0 0 0 0 1 1 0 0 0 0 0 0 0 0 0 0 0 0 0 0 0 0 0 0 0 0 0 0 0 0 0 0 0 0 0 0 0 0
0 0 0 0 0 0 0 0 0 0 0 0 0 0 0 0 0 0 0 0 0 0 0 0 0 0 0 0 0 0 0 0 0 0 0 0 0 0 0 0 0 0 0 0 0 0 0 0 0
0 0 0 0 0 0 0 0 0 0 0 0 0 0 0 0 0 0 0 0 0 0 0 0 0 0 0 0 0 0 0 0 0 0 0 0 0 0 0 0 0 0 0 0 0 0 0 0 0
0 0 0 0 0 0 0 0 0 0 0 0 0 0 0 0 0 0 0 0 0 0 0 0 0 0 0 0 0 0 0 0 0 0 0 0 0 0 0 0 0 0 0 0 0 0 0 0 0
0 0 0 0 0 0 0 0 0 0 0 0 0 0 0 0 0 0 0 0 0 0 0 0 0 0 0 0 0 0 0 0 0 0 0 0 0 0 0 0 0 0 0 0 0 0 0 0 0
0 0 0 0 0 0 0 0 0 0 0 0 0 0 0 0 0 0 0 0 0 0 0 0 0 0 0 0 0 0 0 0 0 0 0 0 0 0 0 0 0 0 0 0 0 0 0 0 0
0 0 0 0 0 0 0 0 0 0 0 0 0 0 0 0 0 0 0 0 0 0 0 0 0 0 0 0 0 0 0 0 0 0 0 0 0 0 0 0 0 0 0 0 0 0 0 0 0
0 0 0 0 0 0 0 0 0 0 0 0 0 0 0 0 0 0 0 0 0 0 0 0 0 0 0 0 0 0 0 0 0 0 0 0 0 0 0 0 0 0 0 0 0 0 0 0 0
0 0 0 0 0 0 0 0 0 0 0 0 0 0 0 0 0 0 0 0 0 0 0 0 0 0 0 0 0 0 0 0 0 0 0 0 0 0 0 0 0 0 0 0 0 0 0 0 0
0 0 0 0 0 0 0 0 0 0 0 0 0 0 0 0 0 0 0 0 0 0 0 0 0 0 0 0 0 0 0 0 0 0 0 0 0 0 0 0 0 0 0 0 0 0 0 0 0
0 0 0 0 0 0 0 0 0 0 0 0 0 0 0 -0 0 0 0 0 0 0 0 0 0 0 0 0 0 0 0 0 0 0 0 0 0 0 0 0 0 0 0 0 0 0 0 0 0
0 0 0 0 0 0 0 0 0 0 0 0 0 0 0 0 0 0 0 0 0 0 0 0 0 0 0 0 0 0 0 0 0 0 0 0 0 0 0 0 0 0 0 0 0 0 0 0 0
0 0 0 0 0 0 0 0 0 0 0 0 0 0 0 0 0 0 0 0 0 0 0 0 0 0 0 0 0 0 0 0 0 0 0 0 0 0 0 0 0 0 0 0 0 0 0 0 0
0 0 0 0 0 0 0 0 0 0 0 0 0 0 0 0 0 0 0 0 0 0 0 0 0 0 0 0 0 0 0 0 0 0 0 0 0 0 0 0 0 0 0 0 0 0 0 0 0
0 0 0 0 0 0 0 0 0 0 0 0 0 0 0 -0 -0 0 0 0 0 0 0 0 0 0 0 0 0 0 0 0 0 0 0 0 0 0 0 0 0 0 0 0 0 0 0 0 0
Wind_Speed_500mb
9 9 6 14 6 7 10 16 13 4 12 49 49 37 27 27 7 11 39 45 43 36 46 43 37 31 28 25 22 22 25 25 25 22 22 20 17 14 12 14 13 12 10 9 9 9 9 11 15
12 6 8 8 6 2 12 10 11 15 25 41 56 37 22 9 20 49 38 29 33 35 45 41 38 33 28 24 23 22 21 21 23 20 21 20 16 14 12 13 13 11 10 9 7 6 5 6 9
15 13 6 7 7 9 8 13 14 20 26 32 15 36 15 19 30 30 31 26 30 37 46 42 37 33 29 25 22 21 20 19 19 20 20 19 16 14 13 13 13 11 10 9 8 5 3 1 3
21 5 10 3 16 24 19 14 13 12 18 17 35 20 19 16 41 42 33 26 32 41 49 44 38 33 29 26 23 21 18 18 18 19 19 17 16 14 13 14 13 12 11 10 10 8 5 4 3
18 10 2 7 20 20 27 6 13 8 16 20 26 12 16 21 26 65 45 36 30 37 46 43 40 36 32 27 25 22 21 20 19 19 18 17 16 16 16 17 16 15 14 13 13 11 10 8 8
11 5 5 10 17 15 12 10 13 9 6 14 21 22 12 29 56 61 50 46 41 35 37 45 42 37 33 30 28 26 25 23 22 20 19 19 19 19 19 20 20 19 18 18 17 16 15 13 11
8 4 9 12 18 24 18 9 13 11 24 9 32 12 26 49 49 54 54 52 47 38 39 47 44 38 34 31 29 27 25 24 23 21 22 21 22 22 23 23 23 23 23 22 22 20 19 17 15
14 6 7 8 12 15 21 23 33 22 11 21 11 16 16 57 51 50 47 46 39 35 44 47 41 38 35 33 30 27 26 24 23 22 24 23 25 26 27 29 29 29 29 28 27 26 25 22 20
25 4 7 11 2 15 33 20 27 26 18 15 11 22 21 65 57 53 49 41 35 34 43 44 42 40 37 33 31 28 27 27 26 27 28 30 32 32 34 35 34 35 34 34 32 31 28 25 23
13 8 13 13 11 11 31 26 42 22 28 13 36 31 49 71 66 57 52 50 44 41 40 45 43 41 36 34 31 30 29 29 30 32 33 32 31 30 30 28 27 27 29 29 28 25 24 24 23
10 14 14 37 28 37 35 29 32 26 12 28 36 48 59 61 58 55 50 48 46 47 44 41 42 41 37 36 33 31 27 28 29 30 32 30 28 31 30 31 28 26 26 31 20 17 21 19 15
11 31 23 20 48 45 22 46 25 39 32 35 24 43 58 60 60 58 57 53 47 49 47 45 42 39 37 34 31 29 26 26 23 23 25 26 26 29 28 29 29 30 28 26 24 24 18 17 14
13 12 37 53 58 57 55 38 26 38 52 49 45 30 56 59 54 53 52 51 45 45 49 47 46 45 44 41 35 29 29 28 29 24 23 27 23 24 29 24 24 29 32 31 31 31 27 29 29
30 40 41 49 51 49 32 26 35 41 42 51 51 30 54 59 57 55 54 63 57 50 50 47 49 55 53 53 48 47 44 39 33 29 23 28 26 21 13 23 20 27 34 30 36 34 32 30 29
37 27 34 38 33 28 46 25 29 63 58 57 56 44 50 56 56 57 56 64 68 60 54 53 51 55 57 55 50 43 40 38 33 25 24 27 29 24 23 21 28 32 35 34 37 36 34 34 32
13 11 12 5 23 30 23 37 19 41 49 62 65 67 57 61 62 56 57 57 75 70 63 55 53 52 58 55 49 44 42 36 29 25 24 26 28 29 34 33 34 34 32 33 35 36 34 34 33
9 11 18 19 18 20 14 26 17 28 41 39 23 55 59 72 71 67 66 68 73 71 62 57 52 51 49 48 46 43 38 34 30 26 25 26 27 32 36 30 29 32 30 28 30 30 26 30 31
10 13 15 17 18 28 17 18 16 33 41 18 30 37 39 56 76 70 72 71 76 71 63 55 49 46 45 43 45 37 36 36 33 30 25 25 28 32 31 25 26 29 28 24 23 23 22 23 20
21 29 32 30 19 23 21 24 18 27 23 32 43 39 40 55 56 64 74 85 81 71 65 59 52 47 46 46 42 37 38 37 36 35 28 26 29 32 30 29 30 28 24 20 20 21 22 15 13
26 29 27 12 19 26 29 37 16 16 28 41 55 64 49 55 46 47 82 90 86 80 72 64 58 53 50 47 41 34 33 36 37 34 32 29 30 33 31 29 30 29 25 22 21 22 21 13 11
21 16 11 15 24 14 18 24 15 16 41 38 48 32 40 49 64 46 71 91 87 81 76 70 66 56 49 46 42 33 34 39 44 41 35 32 33 36 36 31 32 31 27 25 23 26 25 18 15
13 14 21 21 19 9 13 18 7 17 13 32 51 62 70 78 41 7 58 95 87 79 72 65 58 47 38 37 39 45 50 50 45 35 36 35 35 36 36 33 34 34 28 28 28 28 28 24 25
11 9 10 10 9 13 5 10 6 15 9 28 35 50 63 67 71 51 26 70 74 71 64 53 43 36 34 33 40 45 51 51 41 42 43 39 37 36 36 37 37 34 31 27 26 29 31 27 23
9 8 12 10 0 11 21 20 12 6 18 23 31 49 59 65 68 69 33 48 52 46 43 39 32 33 35 35 44 50 54 48 44 48 46 41 40 41 40 41 37 36 34 31 30 29 29 27 23
10 7 3 5 1 13 5 12 14 19 27 28 26 43 44 53 62 62 40 20 26 39 38 34 35 38 40 41 44 57 57 48 45 52 47 43 45 48 46 44 43 38 35 32 29 28 26 25 23
17 15 9 10 8 7 9 9 7 19 35 44 42 38 39 47 47 49 43 22 9 18 26 29 29 36 45 45 46 51 54 52 48 52 56 48 49 48 48 46 42 37 34 31 29 28 25 23 23
13 16 16 7 7 6 8 6 7 7 14 18 17 26 25 20 20 29 31 9 9 21 34 36 35 34 44 49 51 48 50 47 50 52 52 49 50 48 47 47 42 39 38 34 30 28 26 24 22
3 12 2 6 8 10 8 12 8 11 12 13 21 34 31 10 12 9 14 18 14 9 19 37 38 38 39 44 46 46 45 49 51 51 50 51 54 53 49 49 44 40 37 34 31 29 26 23 21
3 7 6 8 9 8 3 6 12 13 13 8 7 8 26 10 6 3 10 15 16 15 18 19 28 41 46 45 41 43 48 53 57 52 54 59 58 53 47 47 45 41 39 36 32 29 25 20 19
6 2 13 8 8 7 8 9 23 19 11 2 14 13 19 6 2 4 11 14 18 16 23 29 41 45 44 43 49 46 52 58 59 60 61 62 60 54 50 48 42 40 36 30 28 26 25 24 23
Wind_Direction_500mb
328 286 323 300 37 77 268 270 223 26 55 76 66 84 95 62 22 164 148 179 168 168 169 164 161 158 151 144 137 142 153 158 161 162 158 156 152 152 153 154 155 151 145 131 113 97 83 71 73
16 52 278 270 105 315 276 266 95 76 87 79 94 100 52 61 93 132 139 156 161 170 170 167 164 163 159 156 147 143 148 158 160 167 167 166 165 165 169 170 167 169 164 155 142 123 103 78 79
351 317 302 151 183 207 257 342 107 79 69 94 103 85 93 122 125 139 153 164 171 181 177 173 171 168 166 165 161 154 152 158 166 171 175 176 179 182 183 187 183 186 187 183 177 174 149 113 85
350 347 257 99 263 264 228 262 123 107 99 96 117 77 97 145 160 146 150 174 190 178 175 175 174 173 174 173 171 165 164 165 174 177 179 189 193 196 200 201 205 203 207 208 208 208 217 223 246
329 266 270 248 261 273 289 241 59 42 148 162 115 131 104 148 158 149 159 186 199 162 176 179 179 179 180 178 178 178 180 182 185 184 190 201 206 212 211 214 217 218 220 223 229 231 232 238 255
300 265 2 268 285 290 317 139 107 19 100 157 100 111 126 148 143 149 174 184 189 187 178 185 185 183 183 186 187 190 191 192 196 193 205 211 217 221 222 224 226 227 226 232 235 240 240 240 242
214 73 244 298 300 304 326 39 48 28 358 265 147 92 140 155 155 164 179 192 199 205 203 189 187 186 189 193 195 197 199 204 206 206 217 223 228 231 231 233 235 236 236 235 241 245 248 249 254
291 124 277 277 282 294 7 10 20 18 337 350 107 137 166 161 164 174 185 199 201 193 185 186 188 191 194 196 198 202 206 209 213 217 225 230 236 239 241 240 238 239 241 242 242 246 249 253 257
273 9 266 254 31 306 355 4 358 325 345 39 80 129 136 151 167 175 181 197 204 188 186 185 189 194 197 198 198 200 202 208 212 218 225 227 234 236 239 244 242 244 245 245 246 247 251 255 256
181 166 243 245 335 328 332 356 331 336 322 82 90 111 138 156 173 182 189 192 196 194 186 189 192 195 195 201 201 205 210 219 225 227 230 235 239 242 251 249 247 244 252 252 251 253 251 249 254
254 224 250 277 315 332 320 320 317 309 311 297 171 158 160 170 180 191 195 204 198 195 193 195 193 197 195 196 196 203 206 220 232 240 244 239 233 238 243 241 245 245 252 252 245 235 241 243 230
309 291 292 292 305 304 296 294 295 294 286 303 306 221 180 183 186 193 192 205 204 199 201 198 194 184 183 182 186 193 208 223 235 244 252 240 234 234 238 246 254 256 254 248 239 236 227 220 220
298 290 295 292 287 279 279 273 259 277 284 292 297 211 194 190 191 193 191 204 206 204 205 200 196 181 185 192 193 200 214 235 252 255 254 253 247 245 234 230 243 247 247 241 237 229 239 232 235
301 314 309 302 294 296 301 288 294 270 274 278 282 229 203 196 197 189 192 205 204 208 213 206 197 189 193 195 201 201 215 230 245 256 250 248 251 254 230 215 215 234 235 238 240 240 235 239 244
324 314 307 287 293 278 271 270 255 265 264 261 263 250 211 199 194 190 191 207 203 208 213 215 204 195 200 202 207 212 218 228 241 246 243 240 240 241 232 207 210 227 229 233 234 234 243 241 238
318 294 279 123 257 260 221 261 265 258 252 245 249 249 217 201 196 192 191 206 203 205 213 219 214 203 204 209 213 217 221 229 234 241 245 238 230 227 225 221 227 236 242 238 237 235 234 236 231
235 262 265 295 269 269 190 273 217 243 271 273 257 246 238 198 196 196 193 202 206 206 211 214 218 215 212 212 217 217 222 229 236 241 240 232 225 222 227 230 233 238 240 235 235 241 236 233 235
230 248 284 290 303 318 327 309 297 257 263 289 303 283 235 198 195 200 199 203 207 207 210 217 225 221 219 216 217 213 217 225 234 242 235 229 219 223 229 230 226 229 234 230 228 231 227 228 226
256 266 273 281 296 327 310 299 298 308 328 326 307 300 215 205 217 220 207 200 199 201 204 215 223 229 227 220 221 218 217 223 232 241 238 225 216 222 224 225 223 223 229 221 215 208 213 211 212
252 265 275 289 333 319 316 301 295 304 302 302 291 278 264 226 217 219 203 193 197 198 204 211 223 231 234 232 230 230 231 233 240 244 241 224 215 219 224 215 216 213 215 209 204 199 207 192 182
267 268 279 304 322 325 327 305 318 324 323 353 9 315 288 254 231 227 196 190 195 198 205 218 225 228 230 229 223 223 233 234 237 238 238 225 213 213 218 213 218 217 208 201 199 198 203 186 170
270 288 314 321 295 306 11 296 327 292 306 60 45 46 45 45 60 257 200 188 196 203 203 209 214 217 227 229 221 225 232 235 244 250 246 228 216 215 216 215 212 220 211 205 197 193 204 200 189
276 34 338 307 1 327 255 270 128 304 352 72 53 51 43 46 49 54 187 186 189 191 195 202 214 225 237 232 219 224 234 241 245 249 244 228 222 217 215 214 213 214 214 204 200 195 201 206 204
61 26 327 309 173 278 240 220 303 306 127 85 72 57 45 43 44 49 88 179 183 182 186 196 222 247 245 239 221 225 233 236 245 242 236 232 226 218 213 214 213 212 213 208 205 202 204 209 208
136 109 298 337 165 241 287 241 222 93 82 84 74 57 49 46 50 49 64 122 178 203 211 230 238 236 235 234 235 231 234 243 239 248 244 240 232 220 215 214 213 212 210 207 205 204 205 206 206
181 168 170 204 204 265 346 265 119 95 93 87 69 51 47 69 61 58 48 47 294 253 253 255 245 232 227 229 234 241 242 250 239 245 242 247 241 226 217 213 213 210 210 209 205 204 199 203 207
184 202 209 357 9 27 224 356 244 109 80 69 56 47 36 54 40 60 68 58 335 274 260 257 252 247 234 235 240 244 249 241 243 242 244 246 237 225 220 217 211 207 206 205 204 202 201 200 203
106 147 75 85 200 218 234 207 186 66 64 65 36 2 349 111 91 67 47 64 49 303 277 254 254 251 248 243 245 252 250 237 242 238 237 234 233 232 225 220 213 207 204 202 201 201 200 200 201
132 162 188 169 161 183 304 265 169 114 83 339 131 16 5 122 96 321 327 317 341 16 331 287 244 243 245 250 250 253 245 234 236 234 226 223 224 228 231 219 210 203 200 198 199 199 198 197 194
51 353 165 143 255 217 151 250 178 142 156 48 26 330 6 118 118 282 281 260 258 318 322 308 298 278 270 263 261 257 249 240 237 232 224 220 222 227 230 217 208 199 200 199 197 199 194 194 188
Wind_Speed_850mb
9 9 6 14 6 7 10 16 13 4 12 49 49 37 27 27 7 11 39 45 43 36 46 43 37 31 28 25 22 22 25 25 25 22 22 20 17 14 12 14 13 12 10 9 9 9 9 11 15
12 6 8 8 6 2 12 10 11 15 25 41 56 37 22 9 20 49 38 29 33 35 45 41 38 33 28 24 23 22 21 21 23 20 21 20 16 14 12 13 13 11 10 9 7 6 5 6 9
15 13 6 7 7 9 8 13 14 20 26 32 15 36 15 19 30 30 31 26 30 37 46 42 37 33 29 25 22 21 20 19 19 20 20 19 16 14 13 13 13 11 10 9 8 5 3 1 3
21 5 10 3 16 24 19 14 13 12 18 17 35 20 19 16 41 42 33 26 32 41 49 44 38 33 29 26 23 21 18 18 18 19 19 17 16 14 13 14 13 12 11 10 10 8 5 4 3
18 10 2 7 20 20 27 6 13 8 16 20 26 12 16 21 26 65 45 36 30 37 46 43 40 36 32 27 25 22 21 20 19 19 18 17 16 16 16 17 16 15 14 13 13 11 10 8 8
11 5 5 10 17 15 12 10 13 9 6 14 21 22 12 29 56 61 50 46 41 35 37 45 42 37 33 30 28 26 25 23 22 20 19 19 19 19 19 20 20 19 18 18 17 16 15 13 11
8 4 9 12 18 24 18 9 13 11 24 9 32 12 26 49 49 54 54 52 47 38 39 47 44 38 34 31 29 27 25 24 23 21 22 21 22 22 23 23 23 23 23 22 22 20 19 17 15
14 6 7 8 12 15 21 23 33 22 11 21 11 16 16 57 51 50 47 46 39 35 44 47 41 38 35 33 30 27 26 24 23 22 24 23 25 26 27 29 29 29 29 28 27 26 25 22 20
25 4 7 11 2 15 33 20 27 26 18 15 11 22 21 65 57 53 49 41 35 34 43 44 42 40 37 33 31 28 27 27 26 27 28 30 32 32 34 35 34 35 34 34 32 31 28 25 23
13 8 13 13 11 11 31 26 42 22 28 13 36 31 49 71 66 57 52 50 44 41 40 45 43 41 36 34 31 30 29 29 30 32 33 32 31 30 30 28 27 27 29 29 28 25 24 24 23
10 14 14 37 28 37 35 29 32 26 12 28 36 48 59 61 58 55 50 48 46 47 44 41 42 41 37 36 33 31 27 28 29 30 32 30 28 31 30 31 28 26 26 31 20 17 21 19 15
11 31 23 20 48 45 22 46 25 39 32 35 24 43 58 60 60 58 57 53 47 49 47 45 42 39 37 34 31 29 26 26 23 23 25 26 26 29 28 29 29 30 28 26 24 24 18 17 14
13 12 37 53 58 57 55 38 26 38 52 49 45 30 56 59 54 53 52 51 45 45 49 47 46 45 44 41 35 29 29 28 29 24 23 27 23 24 29 24 24 29 32 31 31 31 27 29 29
30 40 41 49 51 49 32 26 35 41 42 51 51 30 54 59 57 55 54 63 57 50 50 47 49 55 53 53 48 47 44 39 33 29 23 28 26 21 13 23 20 27 34 30 36 34 32 30 29
37 27 34 38 33 28 46 25 29 63 58 57 56 44 50 56 56 57 56 64 68 60 54 53 51 55 57 55 50 43 40 38 33 25 24 27 29 24 23 21 28 32 35 34 37 36 34 34 32
13 11 12 5 23 30 23 37 19 41 49 62 65 67 57 61 62 56 57 57 75 70 63 55 53 52 58 55 49 44 42 36 29 25 24 26 28 29 34 33 34 34 32 33 35 36 34 34 33
9 11 18 19 18 20 14 26 17 28 41 39 23 55 59 72 71 67 66 68 73 71 62 57 52 51 49 48 46 43 38 34 30 26 25 26 27 32 36 30 29 32 30 28 30 30 26 30 31
10 13 15 17 18 28 17 18 16 33 41 18 30 37 39 56 76 70 72 71 76 71 63 55 49 46 45 43 45 37 36 36 33 30 25 25 28 32 31 25 26 29 28 24 23 23 22 23 20
21 29 32 30 19 23 21 24 18 27 23 32 43 39 40 55 56 64 74 85 81 71 65 59 52 47 46 46 42 37 38 37 36 35 28 26 29 32 30 29 30 28 24 20 20 21 22 15 13
26 29 27 12 19 26 29 37 16 16 28 41 55 64 49 55 46 47 82 90 86 80 72 64 58 53 50 47 41 34 33 36 37 34 32 29 30 33 31 29 30 29 25 22 21 22 21 13 11
21 16 11 15 24 14 18 24 15 16 41 38 48 32 40 49 64 46 71 91 87 81 76 70 66 56 49 46 42 33 34 39 44 41 35 32 33 36 36 31 32 31 27 25 23 26 25 18 15
13 14 21 21 19 9 13 18 7 17 13 32 51 62 70 78 41 7 58 95 87 79 72 65 58 47 38 37 39 45 50 50 45 35 36 35 35 36 36 33 34 34 28 28 28 28 28 24 25
11 9 10 10 9 13 5 10 6 15 9 28 35 50 63 67 71 51 26 70 74 71 64 53 43 36 34 33 40 45 51 51 41 42 43 39 37 36 36 37 37 34 31 27 26 29 31 27 23
9 8 12 10 0 11 21 20 12 6 18 23 31 49 59 65 68 69 33 48 52 46 43 39 32 33 35 35 44 50 54 48 44 48 46 41 40 41 40 41 37 36 34 31 30 29 29 27 23
10 7 3 5 1 13 5 12 14 19 27 28 26 43 44 53 62 62 40 20 26 39 38 34 35 38 40 41 44 57 57 48 45 52 47 43 45 48 46 44 43 38 35 32 29 28 26 25 23
17 15 9 10 8 7 9 9 7 19 35 44 42 38 39 47 47 49 43 22 9 18 26 29 29 36 45 45 46 51 54 52 48 52 56 48 49 48 48 46 42 37 34 31 29 28 25 23 23
13 16 16 7 7 6 8 6 7 7 14 18 17 26 25 20 20 29 31 9 9 21 34 36 35 34 44 49 51 48 50 47 50 52 52 49 50 48 47 47 42 39 38 34 30 28 26 24 22
3 12 2 6 8 10 8 12 8 11 12 13 21 34 31 10 12 9 14 18 14 9 19 37 38 38 39 44 46 46 45 49 51 51 50 51 54 53 49 49 44 40 37 34 31 29 26 23 21
3 7 6 8 9 8 3 6 12 13 13 8 7 8 26 10 6 3 10 15 16 15 18 19 28 41 46 45 41 43 48 53 57 52 54 59 58 53 47 47 45 41 39 36 32 29 25 20 19
6 2 13 8 8 7 8 9 23 19 11 2 14 13 19 6 2 4 11 14 18 16 23 29 41 45 44 43 49 46 52 58 59 60 61 62 60 54 50 48 42 40 36 30 28 26 25 24 23
Wind_Direction_850mb
328 286 323 300 37 77 268 270 223 26 55 76 66 84 95 62 22 164 148 179 168 168 169 164 161 158 151 144 137 142 153 158 161 162 158 156 152 152 153 154 155 151 145 131 113 97 83 71 73
16 52 278 270 105 315 276 266 95 76 87 79 94 100 52 61 93 132 139 156 161 170 170 167 164 163 159 156 147 143 148 158 160 167 167 166 165 165 169 170 167 169 164 155 142 123 103 78 79
351 317 302 151 183 207 257 342 107 79 69 94 103 85 93 122 125 139 153 164 171 181 177 173 171 168 166 165 161 154 152 158 166 171 175 176 179 182 183 187 183 186 187 183 177 174 149 113 85
350 347 257 99 263 264 228 262 123 107 99 96 117 77 97 145 160 146 150 174 190 178 175 175 174 173 174 173 171 165 164 165 174 177 179 189 193 196 200 201 205 203 207 208 208 208 217 223 246
329 266 270 248 261 273 289 241 59 42 148 162 115 131 104 148 158 149 159 186 199 162 176 179 179 179 180 178 178 178 180 182 185 184 190 201 206 212 211 214 217 218 220 223 229 231 232 238 255
300 265 2 268 285 290 317 139 107 19 100 157 100 111 126 148 143 149 174 184 189 187 178 185 185 183 183 186 187 190 191 192 196 193 205 211 217 221 222 224 226 227 226 232 235 240 240 240 242
214 73 244 298 300 304 326 39 48 28 358 265 147 92 140 155 155 164 179 192 199 205 203 189 187 186 189 193 195 197 199 204 206 206 217 223 228 231 231 233 235 236 236 235 241 245 248 249 254
291 124 277 277 282 294 7 10 20 18 337 350 107 137 166 161 164 174 185 199 201 193 185 186 188 191 194 196 198 202 206 209 213 217 225 230 236 239 241 240 238 239 241 242 242 246 249 253 257
273 9 266 254 31 306 355 4 358 325 345 39 80 129 136 151 167 175 181 197 204 188 186 185 189 194 197 198 198 200 202 208 212 218 225 227 234 236 239 244 242 244 245 245 246 247 251 255 256
181 166 243 245 335 328 332 356 331 336 322 82 90 111 138 156 173 182 189 192 196 194 186 189 192 195 195 201 201 205 210 219 225 227 230 235 239 242 251 249 247 244 252 252 251 253 251 249 254
254 224 250 277 315 332 320 320 317 309 311 297 171 158 160 170 180 191 195 204 198 195 193 195 193 197 195 196 196 203 206 220 232 240 244 239 233 238 243 241 245 245 252 252 245 235 241 243 230
309 291 292 292 305 304 296 294 295 294 286 303 306 221 180 183 186 193 192 205 204 199 201 198 194 184 183 182 186 193 208 223 235 244 252 240 234 234 238 246 254 256 254 248 239 236 227 220 220
298 290 295 292 287 279 279 273 259 277 284 292 297 211 194 190 191 193 191 204 206 204 205 200 196 181 185 192 193 200 214 235 252 255 254 253 247 245 234 230 243 247 247 241 237 229 239 232 235
301 314 309 302 294 296 301 288 294 270 274 278 282 229 203 196 197 189 192 205 204 208 213 206 197 189 193 195 201 201 215 230 245 256 250 248 251 254 230 215 215 234 235 238 240 240 235 239 244
324 314 307 287 293 278 271 270 255 265 264 261 263 250 211 199 194 190 191 207 203 208 213 215 204 195 200 202 207 212 218 228 241 246 243 240 240 241 232 207 210 227 229 233 234 234 243 241 238
318 294 279 123 257 260 221 261 265 258 252 245 249 249 217 201 196 192 191 206 203 205 213 219 214 203 204 209 213 217 221 229 234 241 245 238 230 227 225 221 227 236 242 238 237 235 234 236 231
235 262 265 295 269 269 190 273 217 243 271 273 257 246 238 198 196 196 193 202 206 206 211 214 218 215 212 212 217 217 222 229 236 241 240 232 225 222 227 230 233 238 240 235 235 241 236 233 235
230 248 284 290 303 318 327 309 297 257 263 289 303 283 235 198 195 200 199 203 207 207 210 217 225 221 219 216 217 213 217 225 234 242 235 229 219 223 229 230 226 229 234 230 228 231 227 228 226
256 266 273 281 296 327 310 299 298 308 328 326 307 300 215 205 217 220 207 200 199 201 204 215 223 229 227 220 221 218 217 223 232 241 238 225 216 222 224 225 223 223 229 221 215 208 213 211 212
252 265 275 289 333 319 316 301 295 304 302 302 291 278 264 226 217 219 203 193 197 198 204 211 223 231 234 232 230 230 231 233 240 244 241 224 215 219 224 215 216 213 215 209 204 199 207 192 182
267 268 279 304 322 325 327 305 318 324 323 353 9 315 288 254 231 227 196 190 195 198 205 218 225 228 230 229 223 223 233 234 237 238 238 225 213 213 218 213 218 217 208 201 199 198 203 186 170
270 288 314 321 295 306 11 296 327 292 306 60 45 46 45 45 60 257 200 188 196 203 203 209 214 217 227 229 221 225 232 235 244 250 246 228 216 215 216 215 212 220 211 205 197 193 204 200 189
276 34 338 307 1 327 255 270 128 304 352 72 53 51 43 46 49 54 187 186 189 191 195 202 214 225 237 232 219 224 234 241 245 249 244 228 222 217 215 214 213 214 214 204 200 195 201 206 204
61 26 327 309 173 278 240 220 303 306 127 85 72 57 45 43 44 49 88 179 183 182 186 196 222 247 245 239 221 225 233 236 245 242 236 232 226 218 213 214 213 212 213 208 205 202 204 209 208
136 109 298 337 165 241 287 241 222 93 82 84 74 57 49 46 50 49 64 122 178 203 211 230 238 236 235 234 235 231 234 243 239 248 244 240 232 220 215 214 213 212 210 207 205 204 205 206 206
181 168 170 204 204 265 346 265 119 95 93 87 69 51 47 69 61 58 48 47 294 253 253 255 245 232 227 229 234 241 242 250 239 245 242 247 241 226 217 213 213 210 210 209 205 204 199 203 207
184 202 209 357 9 27 224 356 244 109 80 69 56 47 36 54 40 60 68 58 335 274 260 257 252 247 234 235 240 244 249 241 243 242 244 246 237 225 220 217 211 207 206 205 204 202 201 200 203
106 147 75 85 200 218 234 207 186 66 64 65 36 2 349 111 91 67 47 64 49 303 277 254 254 251 248 243 245 252 250 237 242 238 237 234 233 232 225 220 213 207 204 202 201 201 200 200 201
132 162 188 169 161 183 304 265 169 114 83 339 131 16 5 122 96 321 327 317 341 16 331 287 244 243 245 250 250 253 245 234 236 234 226 223 224 228 231 219 210 203 200 198 199 199 198 197 194
51 353 165 143 255 217 151 250 178 142 156 48 26 330 6 118 118 282 281 260 258 318 322 308 298 278 270 263 261 257 249 240 237 232 224 220 222 227 230 217 208 199 200 199 197 199 194 194 188